1507755600.53,19965,11.56,73918.0,-0.97,-1.99,-1.95,0,*60
1507755601.78,19966,11.56,73914.5,-0.99,-2.03,-1.91,0,*69
1507755603.03,19967,11.56,73914.3,-0.99,-2.11,-1.99,0,*63
1507755604.27,19968,11.5,73914.8,-0.99,-2.03,-1.99,0,*6F
1507755605.52,19969,11.56,73918.5,-0.99,-2.03,-1.99,0,*6E
1507755606.77,19970,11.56,73922.0,-0.99,-1.99,-1.99,0,*66
1507755608.02,19971,11.56,73916.5,-0.99,-2.03,-2.03,0,*67
1507755609.28,19972,11.56,73912.5,-0.97,-1.95,-1.87,0,*69
1507755610.53,19973,11.56,73912.5,-0.99,-2.03,-1.91,0,*6D
1507755611.78,19974,11.5,73912.3,-0.99,-2.11,-1.99,0,*61
1507755613.02,19975,11.56,73918.8,-0.99,-2.03,-1.99,0,*63
1507755614.27,19976,11.56,73926.3,-0.99,-2.03,-1.99,0,*60
1507755615.52,19977,11.56,73916.5,-0.99,-1.99,-1.99,0,*61
1507755616.77,19978,11.56,73922.0,-0.99,-2.03,-1.99,0,*6E
1507755618.04,19979,11.56,73926.8,-0.97,-1.99,-1.91,0,*69
1507755619.29,19980,11.56,73924.8,-0.99,-2.03,-1.91,0,*61
1507755620.54,19981,11.56,73922.5,-0.99,-1.99,-1.99,0,*68
1507755621.78,19982,11.56,73916.3,-0.99,-1.99,-1.91,0,*63
1507755623.04,19983,11.5,73908.8,-0.99,-1.99,-1.99,0,*6A
1507755624.29,19984,11.56,73908.8,-0.97,-1.95,-1.95,0,*63
1507755625.54,19985,11.5,73902.0,-0.99,-1.91,-1.99,0,*64
1507755626.78,19986,11.56,73904.3,-0.99,-1.99,-1.91,0,*67
1507755628.05,19987,11.5,73906.8,-0.97,-1.99,-1.95,0,*6C
1507755629.3,19988,11.56,73904.8,-0.99,-1.99,-1.99,0,*61
1507755630.55,19989,11.5,73904.3,-0.99,-1.99,-1.99,0,*60
1507755631.8,19990,11.56,73906.5,-0.99,-1.99,-1.99,0,*68
1507755633.05,19991,11.56,73912.8,-0.99,-2.11,-1.99,0,*6A
1507755634.3,19992,11.56,73916.8,-0.99,-2.03,-1.99,0,*6A
1507755635.56,19993,11.56,73912.5,-0.97,-1.99,-1.95,0,*69
1507755636.83,19994,11.56,73914.5,-0.97,-1.95,-1.87,0,*61
1507755638.07,19995,11.56,73914.8,-0.99,-1.99,-1.91,0,*65
1507755639.33,19996,11.56,73916.0,-0.99,-1.99,-1.99,0,*6E
1507755640.57,19997,11.56,73914.3,-0.99,-1.91,-1.99,0,*67
1507755641.83,19998,11.5,73912.0,-0.97,-1.95,-1.87,0,*6D
1507755643.08,19999,11.56,73912.8,-0.99,-1.99,-1.91,0,*69
1507755644.32,20000,11.5,73908.3,-0.99,-1.91,-1.91,0,*62
1507755645.56,20001,11.56,73910.8,-0.99,-1.91,-1.91,0,*63
1507755646.8,20002,11.56,73916.5,-0.99,-1.91,-1.91,0,*60
1507755648.06,20003,11.56,73912.3,-0.97,-1.87,-1.95,0,*6C
1507755649.31,20004,11.56,73914.8,-0.99,-1.91,-1.99,0,*6E
1507755650.55,20005,11.56,73912.8,-0.99,-1.91,-1.91,0,*67
1507755651.79,20006,11.56,73910.3,-0.99,-1.91,-1.99,0,*6C
1507755653.03,20007,11.56,73904.3,-0.99,-1.91,-1.99,0,*6D
1507755654.3,20008,11.56,73906.0,-0.97,-1.95,-1.87,0,*67
1507755655.54,20009,11.5,73910.5,-0.99,-1.91,-1.99,0,*63
1507755656.79,20010,11.56,73908.5,-0.99,-1.91,-1.99,0,*6B
1507755658.03,20011,11.56,73914.3,-0.99,-1.91,-1.91,0,*62
1507755659.27,20012,11.56,73920.3,-0.99,-1.91,-1.99,0,*69
1507755660.51,20013,11.56,73926.0,-0.99,-1.91,-1.91,0,*60
1507755661.76,20014,11.56,73916.3,-0.99,-1.99,-1.99,0,*67
1507755663.01,20015,11.56,73916.5,-0.99,-1.99,-1.91,0,*6E
1507755664.28,20016,11.56,73910.8,-0.97,-1.87,-1.87,0,*6B
1507755665.52,20017,11.56,73914.3,-0.99,-1.99,-1.91,0,*6C
1507755666.76,20018,11.56,73922.0,-0.99,-1.91,-1.91,0,*6B
1507755668.0,20019,11.56,73916.3,-0.99,-1.91,-1.91,0,*6A
1507755669.24,20020,11.56,73922.3,-0.99,-1.91,-1.91,0,*60
1507755670.46,20021,11.56,73922.3,-0.99,-1.91,-1.79,0,*67
1507755671.71,20022,11.56,73924.8,-0.99,-1.99,-1.91,0,*6A
1507755672.95,20023,11.56,73928.8,-0.99,-1.91,-1.91,0,*63
1507755674.19,20024,11.56,73924.3,-0.99,-1.91,-1.87,0,*63
1507755675.44,20025,11.56,73924.0,-0.99,-1.99,-1.91,0,*6D
1507755676.68,20026,11.56,73928.5,-0.99,-1.91,-1.91,0,*66
1507755677.92,20027,11.56,73928.8,-0.99,-1.91,-1.87,0,*60
1507755679.16,20028,11.56,73926.3,-0.99,-1.91,-1.91,0,*68
1507755680.4,20029,11.56,73922.8,-0.99,-1.91,-1.91,0,*69
1507755681.64,20030,11.56,73922.3,-0.99,-1.99,-1.91,0,*69
1507755682.88,20031,11.56,73920.0,-0.99,-1.91,-1.91,0,*60
1507755684.12,20032,11.56,73916.0,-0.99,-1.91,-1.87,0,*64
1507755685.37,20033,11.56,73916.0,-0.99,-1.99,-1.87,0,*6D
1507755686.62,20034,11.56,73916.3,-0.99,-1.99,-1.87,0,*6A
1507755687.86,20035,11.56,73920.0,-0.99,-1.91,-1.87,0,*63
1507755689.08,20036,11.56,73924.3,-0.99,-1.91,-1.79,0,*61
1507755690.32,20037,11.56,73922.3,-0.99,-1.99,-1.91,0,*6E
1507755691.56,20038,11.56,73918.3,-0.99,-1.91,-1.91,0,*69
1507755692.8,20039,11.56,73918.3,-0.99,-1.91,-1.91,0,*68
1507755694.05,20040,11.56,73922.3,-0.99,-1.99,-1.91,0,*6E
1507755695.29,20041,11.56,73922.8,-0.99,-1.87,-1.91,0,*60
1507755696.53,20042,11.56,73926.3,-0.99,-1.91,-1.87,0,*63
1507755697.78,20043,11.56,73926.5,-0.99,-1.91,-1.91,0,*65
1507755699.04,20044,11.5,73918.8,-0.97,-1.87,-1.83,0,*68
1507755700.28,20045,11.56,73922.3,-0.99,-1.91,-1.91,0,*63
1507755701.53,20046,11.56,73918.5,-0.99,-1.87,-1.87,0,*60
1507755702.77,20047,11.56,73920.8,-0.99,-1.87,-1.87,0,*61
1507755704.01,20048,11.56,73922.8,-0.99,-1.87,-1.87,0,*6E
1507755705.2,20049,11.56,73920.0,-0.99,-1.79,-1.79,0,*6F
1507755706.45,20050,11.56,73926.0,-0.99,-1.87,-1.87,0,*67
1507755707.69,20051,11.56,73926.8,-0.99,-1.87,-1.87,0,*66
1507755708.91,20052,11.56,73924.0,-0.99,-1.87,-1.79,0,*64
1507755710.15,20053,11.56,73924.5,-0.99,-1.87,-1.87,0,*64
1507755711.42,20054,11.56,73930.0,-0.97,-1.83,-1.83,0,*6D
1507755712.64,20055,11.56,73932.3,-0.99,-1.79,-1.87,0,*63
1507755713.88,20056,11.56,73932.5,-0.99,-1.87,-1.87,0,*61
1507755715.12,20057,11.56,73932.0,-0.99,-1.87,-1.87,0,*60
1507755716.37,20058,11.56,73932.3,-0.99,-1.87,-1.87,0,*6F
1507755717.59,20059,11.56,73930.5,-0.99,-1.87,-1.79,0,*6F
1507755718.86,20060,11.56,73928.0,-1.01,-1.87,-1.87,0,*54
1507755720.07,20061,11.56,73930.5,-0.99,-1.79,-1.87,0,*64
1507755721.29,20062,11.56,73930.5,-0.99,-1.87,-1.79,0,*67
1507755722.54,20063,11.56,73930.0,-0.99,-1.87,-1.87,0,*67
1507755723.75,20064,11.56,73928.5,-0.99,-1.79,-1.87,0,*61
1507755724.97,20065,11.56,73926.8,-0.99,-1.87,-1.79,0,*60
1507755726.21,20066,11.56,73926.8,-0.99,-1.91,-1.87,0,*65
1507755727.45,20067,11.56,73924.5,-0.99,-1.91,-1.87,0,*64
1507755728.67,20068,11.56,73926.3,-0.99,-1.87,-1.79,0,*6D
1507755729.89,20069,11.56,73928.3,-0.99,-1.87,-1.79,0,*6C
1507755731.13,20070,11.56,73930.5,-0.99,-1.87,-1.87,0,*65
1507755732.37,20071,11.56,73926.3,-0.99,-1.91,-1.87,0,*63
1507755733.61,20072,11.56,73930.8,-0.99,-1.91,-1.87,0,*60
1507755734.86,20073,11.56,73928.5,-0.97,-1.83,-1.75,0,*61
1507755736.1,20074,11.56,73930.3,-0.99,-1.87,-1.87,0,*61
1507755737.35,20075,11.56,73928.0,-1.01,-1.87,-1.79,0,*51
1507755738.63,20076,11.56,73926.3,-1.01,-1.87,-1.87,0,*53
1507755739.84,20077,11.56,73930.3,-0.99,-1.87,-1.79,0,*63
1507755741.06,20078,11.56,73932.0,-0.99,-1.83,-1.79,0,*68
1507755742.31,20079,11.56,73936.8,-0.99,-1.87,-1.87,0,*6C
1507755743.55,20080,11.56,73938.3,-0.99,-1.87,-1.87,0,*6A
1507755744.77,20081,11.56,73938.3,-0.99,-1.87,-1.79,0,*6A
1507755746.01,20082,11.56,73930.3,-0.99,-1.87,-1.87,0,*68
1507755747.26,20083,11.56,73932.8,-0.97,-1.83,-1.75,0,*6E
1507755748.5,20084,11.56,73934.5,-0.99,-1.87,-1.87,0,*6E
1507755749.71,20085,11.56,73936.3,-0.99,-1.91,-1.79,0,*69
1507755750.96,20086,11.56,73932.5,-0.99,-1.87,-1.87,0,*6C
1507755752.2,20087,11.56,73928.8,-0.99,-1.87,-1.87,0,*6D
1507755753.44,20088,11.56,73932.3,-0.99,-1.87,-1.91,0,*65
1507755754.69,20089,11.56,73932.0,-0.99,-1.91,-1.87,0,*64
1507755755.93,20090,11.56,73934.0,-0.99,-1.87,-1.87,0,*6B
1507755757.17,20091,11.56,73934.5,-0.99,-1.87,-1.91,0,*6D
1507755758.39,20092,11.56,73930.0,-0.99,-1.79,-1.87,0,*68
1507755759.63,20093,11.56,73932.5,-0.99,-1.87,-1.87,0,*68
1507755760.87,20094,11.56,73932.5,-0.99,-1.87,-1.87,0,*6F
1507755762.14,20095,11.56,73934.3,-0.97,-1.87,-1.83,0,*64
1507755763.36,20096,11.56,73936.0,-0.99,-1.87,-1.79,0,*6C
1507755764.6,20097,11.56,73932.5,-0.99,-1.87,-1.87,0,*6C
1507755765.85,20098,11.56,73936.5,-0.99,-1.87,-1.87,0,*63
1507755767.06,20099,11.56,73932.5,-0.99,-1.79,-1.87,0,*63
1507755768.31,20100,11.5,73930.8,-0.99,-1.87,-1.87,0,*63
1507755769.55,20101,11.56,73938.0,-0.99,-1.87,-1.87,0,*62
1507755770.79,20102,11.5,73932.5,-0.99,-1.87,-1.87,0,*61
1507755772.04,20103,11.56,73936.8,-0.99,-1.87,-1.87,0,*60
1507755773.23,20104,11.56,73932.5,-0.99,-1.79,-1.79,0,*67
1507755774.47,20105,11.56,73928.3,-0.99,-1.91,-1.87,0,*61
1507755775.71,20106,11.5,73922.3,-0.99,-1.91,-1.87,0,*62
1507755776.92,20107,11.56,73920.8,-0.99,-1.91,-1.79,0,*62
1507755778.14,20108,11.56,73926.3,-0.99,-1.87,-1.79,0,*6A
1507755779.38,20109,11.56,73928.5,-0.99,-1.91,-1.87,0,*6D
1507755780.63,20110,11.56,73934.3,-0.99,-1.99,-1.87,0,*6D
1507755781.87,20111,11.56,73934.5,-0.99,-1.91,-1.87,0,*64
1507755783.11,20112,11.56,73930.0,-0.99,-1.91,-1.87,0,*67
1507755784.38,20113,11.56,73930.3,-1.01,-1.91,-1.87,0,*56
1507755785.6,20114,11.56,73928.0,-0.99,-1.91,-1.79,0,*60
1507755786.84,20115,11.56,73928.5,-0.99,-1.91,-1.87,0,*60
1507755788.08,20116,11.56,73930.0,-0.99,-1.91,-1.87,0,*63
1507755789.36,20117,11.56,73928.0,-1.01,-1.87,-1.87,0,*55
1507755790.63,20118,11.56,73928.8,-1.01,-1.87,-1.87,0,*5A
1507755791.91,20119,11.56,73930.5,-1.01,-1.99,-1.87,0,*54
1507755793.18,20120,11.56,73928.3,-1.01,-1.91,-1.87,0,*56
1507755794.43,20121,11.56,73928.8,-0.99,-1.99,-1.87,0,*6F
1507755795.67,20122,11.56,73930.5,-0.99,-1.87,-1.91,0,*64
1507755796.91,20123,11.56,73934.0,-0.99,-1.91,-1.87,0,*65
1507755798.15,20124,11.56,73938.0,-0.99,-1.91,-1.87,0,*62
1507755799.39,20125,11.56,73934.5,-0.99,-1.91,-1.87,0,*63
1507755800.63,20126,11.56,73928.5,-0.99,-1.91,-1.91,0,*67
1507755801.87,20127,11.56,73930.8,-0.99,-1.91,-1.87,0,*61
1507755803.12,20128,11.56,73928.8,-0.99,-1.91,-1.87,0,*6E
1507755804.33,20129,11.56,73930.3,-0.99,-1.91,-1.79,0,*6E
1507755805.6,20130,11.56,73936.3,-1.01,-1.91,-1.91,0,*50
1507755806.84,20131,11.56,73932.0,-0.99,-1.91,-1.87,0,*66
1507755808.09,20132,11.56,73928.8,-0.99,-1.87,-1.87,0,*62
1507755809.31,20133,11.56,73930.5,-0.99,-1.87,-1.79,0,*62
1507755810.55,20134,11.56,73932.5,-0.99,-1.87,-1.87,0,*64
1507755811.82,20135,11.56,73928.3,-1.01,-1.87,-1.87,0,*55
1507755813.07,20136,11.56,73930.3,-0.99,-1.87,-1.87,0,*66
1507755814.31,20137,11.56,73928.8,-0.99,-1.87,-1.87,0,*67
1507755815.55,20138,11.56,73930.8,-0.99,-1.87,-1.87,0,*68
1507755816.82,20139,11.56,73930.0,-0.97,-1.83,-1.83,0,*67
1507755818.07,20140,11.56,73928.3,-0.99,-1.99,-1.87,0,*68
1507755819.31,20141,11.56,73926.8,-0.99,-1.91,-1.87,0,*61
1507755820.58,20142,11.56,73922.3,-1.01,-1.91,-1.87,0,*52
1507755821.85,20143,11.56,73920.3,-1.01,-1.91,-1.87,0,*53
1507755823.09,20144,11.56,73916.3,-0.99,-1.91,-1.87,0,*64
1507755824.34,20145,11.56,73916.8,-0.99,-1.91,-1.87,0,*65
1507755825.58,20146,11.56,73916.8,-0.99,-1.99,-1.87,0,*6E
1507755826.8,20147,11.56,73914.3,-0.99,-1.91,-1.79,0,*66
1507755828.08,20148,11.56,73914.8,-1.01,-1.99,-1.91,0,*57
1507755829.36,20149,11.56,73922.5,-1.01,-1.99,-1.91,0,*56
1507755830.63,20150,11.56,73924.0,-1.01,-1.87,-1.87,0,*56
1507755831.91,20151,11.56,73932.0,-1.01,-1.87,-1.87,0,*57
1507755833.12,20152,11.56,73936.0,-0.99,-1.87,-1.79,0,*65
1507755834.37,20153,11.56,73936.0,-0.99,-1.87,-1.87,0,*65
1507755835.61,20154,11.56,73930.8,-0.99,-1.87,-1.87,0,*62
1507755836.85,20155,11.56,73924.8,-0.99,-1.87,-1.87,0,*63
1507755838.1,20156,11.56,73924.5,-0.99,-1.87,-1.91,0,*67
1507755839.37,20157,11.56,73922.0,-1.01,-1.87,-1.87,0,*51
1507755840.62,20158,11.56,73916.5,-1.01,-1.87,-1.79,0,*5F
1507755841.9,20159,11.56,73916.3,-1.01,-1.87,-1.87,0,*5F
1507755843.15,20160,11.56,73916.3,-1.01,-1.91,-1.79,0,*53
1507755844.42,20161,11.56,73918.0,-1.01,-1.87,-1.87,0,*54
1507755845.7,20162,11.56,73922.8,-1.01,-1.87,-1.87,0,*57
1507755846.94,20163,11.56,73924.8,-1.03,-1.95,-1.91,0,*50
1507755848.18,20164,11.56,73924.8,-0.99,-1.87,-1.87,0,*61
1507755849.43,20165,11.56,73928.5,-0.99,-1.87,-1.87,0,*60
1507755850.67,20166,11.56,73928.0,-0.99,-1.87,-1.91,0,*64
1507755851.91,20167,11.56,73928.3,-0.99,-1.91,-1.87,0,*65
1507755853.15,20168,11.56,73930.0,-0.99,-1.87,-1.87,0,*6D
1507755854.4,20169,11.56,73926.3,-0.99,-1.87,-1.87,0,*6C
1507755855.64,20170,11.56,73920.3,-0.99,-1.91,-1.87,0,*63
1507755856.86,20171,11.56,73916.8,-0.99,-1.87,-1.79,0,*64
1507755858.1,20172,11.56,73918.0,-0.99,-1.87,-1.87,0,*66
1507755859.34,20173,11.56,73914.5,-0.99,-1.87,-1.87,0,*67
1507755860.62,20174,11.56,73918.3,-1.01,-1.91,-1.87,0,*57
1507755861.86,20175,11.56,73912.8,-0.99,-1.87,-1.87,0,*61
1507755863.08,20176,11.56,73916.5,-0.99,-1.87,-1.79,0,*63
1507755864.3,20177,11.56,73922.0,-1.01,-1.79,-1.79,0,*53
1507755865.52,20178,11.56,73916.0,-1.01,-1.79,-1.79,0,*5C
1507755866.76,20179,11.56,73920.8,-0.99,-1.91,-1.87,0,*6A
1507755868.01,20180,11.56,73924.8,-0.99,-1.87,-1.87,0,*6B
1507755869.22,20181,11.56,73920.8,-0.99,-1.79,-1.87,0,*6B
1507755870.46,20182,11.56,73920.8,-0.97,-1.83,-1.79,0,*62
1507755871.68,20183,11.56,73916.8,-0.99,-1.87,-1.79,0,*69
1507755872.93,20184,11.56,73918.5,-1.01,-1.79,-1.87,0,*5E
1507755874.21,20185,11.56,73918.3,-1.01,-1.87,-1.87,0,*5E
1507755875.43,20186,11.56,73916.5,-1.01,-1.79,-1.79,0,*5D
1507755876.7,20187,11.56,73918.8,-1.01,-1.87,-1.87,0,*5C
1507755877.98,20188,11.56,73918.5,-1.01,-1.87,-1.87,0,*53
1507755879.25,20189,11.56,73920.3,-1.01,-1.91,-1.87,0,*55
1507755880.49,20190,11.56,73922.5,-0.99,-1.91,-1.87,0,*6D
1507755881.76,20191,11.56,73918.3,-1.01,-1.91,-1.91,0,*5B
1507755883.04,20192,11.56,73912.5,-1.01,-1.87,-1.87,0,*58
1507755884.26,20193,11.56,73908.5,-1.01,-1.79,-1.79,0,*59
1507755885.54,20194,11.56,73910.5,-1.01,-1.99,-1.87,0,*51
1507755886.79,20195,11.56,73904.3,-1.01,-1.91,-1.79,0,*59
1507755888.03,20196,11.56,73904.0,-1.03,-1.91,-1.83,0,*5D
1507755889.27,20197,11.56,73904.5,-0.99,-1.91,-1.87,0,*6A
1507755890.49,20198,11.56,73902.3,-0.99,-1.87,-1.79,0,*63
1507755891.73,20199,11.56,73906.5,-0.99,-1.91,-1.87,0,*64
1507755892.98,20200,11.56,73906.3,-1.01,-1.91,-1.79,0,*56
1507755894.22,20201,11.56,73900.3,-0.99,-1.87,-1.91,0,*66
1507755895.46,20202,11.56,73898.0,-0.99,-1.91,-1.91,0,*62
1507755896.7,20203,11.56,73896.0,-0.99,-1.91,-1.87,0,*64
1507755897.94,20204,11.56,73892.5,-0.99,-1.91,-1.87,0,*63
1507755899.19,20205,11.56,73892.0,-0.99,-1.99,-1.91,0,*6D
1507755900.46,20206,11.56,73902.3,-1.01,-1.91,-1.91,0,*56
1507755901.74,20207,11.56,73896.0,-1.01,-1.91,-1.87,0,*50
1507755903.01,20208,11.56,73900.5,-1.01,-2.11,-2.03,0,*5B
1507755904.29,20209,11.56,73900.0,-1.01,-1.99,-2.03,0,*59
1507755905.54,20210,11.56,73902.8,-1.03,-1.99,-1.95,0,*5F
1507755906.82,20211,11.56,73904.3,-1.01,-1.99,-1.91,0,*58
1507755908.1,20212,11.56,73902.8,-1.01,-1.99,-1.99,0,*53
1507755909.38,20213,11.56,73908.5,-1.01,-1.99,-2.03,0,*52
1507755910.66,20214,11.56,73912.0,-1.01,-1.99,-1.87,0,*5A
1507755911.94,20215,11.56,73908.5,-1.01,-1.99,-1.91,0,*5C
1507755913.22,20216,11.56,73912.0,-1.01,-1.99,-1.91,0,*5F
1507755914.5,20217,11.56,73904.8,-1.01,-1.99,-1.99,0,*56
1507755915.78,20218,11.56,73908.5,-1.01,-1.99,-1.91,0,*51
1507755917.06,20219,11.56,73906.5,-1.01,-1.99,-1.91,0,*50
1507755918.34,20220,11.56,73904.5,-1.01,-1.99,-1.91,0,*5A
1507755919.61,20221,11.56,73904.5,-1.01,-1.91,-1.87,0,*54
1507755920.89,20222,11.56,73908.0,-1.01,-1.99,-1.91,0,*58
1507755922.17,20223,11.56,73904.5,-1.01,-1.99,-1.99,0,*51
1507755923.44,20224,11.56,73896.8,-1.01,-1.91,-1.91,0,*56
1507755924.71,20225,11.56,73898.3,-1.01,-1.91,-1.91,0,*57
1507755925.99,20226,11.56,73898.0,-1.01,-1.99,-1.99,0,*54
1507755927.27,20227,11.56,73902.8,-1.01,-2.03,-1.91,0,*5D
1507755928.54,20228,11.56,73900.8,-1.01,-1.91,-1.91,0,*5A
1507755929.82,20229,11.56,73896.3,-1.01,-1.99,-1.91,0,*53
1507755931.07,20230,11.56,73894.8,-1.03,-2.03,-2.03,0,*51
1507755932.34,20231,11.56,73894.3,-1.01,-1.91,-1.91,0,*52
1507755933.62,20232,11.56,73892.8,-1.01,-1.91,-1.99,0,*59
1507755934.9,20233,11.56,73892.3,-1.01,-1.99,-1.91,0,*58
1507755936.18,20234,11.56,73898.5,-1.01,-1.99,-1.99,0,*57
1507755937.46,20235,11.56,73902.8,-1.01,-1.99,-1.99,0,*56
1507755938.74,20236,11.56,73910.5,-1.01,-2.03,-1.91,0,*5D
1507755940.01,20237,11.56,73908.3,-1.01,-1.99,-1.91,0,*5C
1507755941.3,20238,11.56,73904.3,-1.01,-1.99,-1.99,0,*5B
1507755942.58,20239,11.56,73900.5,-1.01,-1.99,-1.99,0,*5A
1507755943.86,20240,11.56,73906.3,-1.01,-1.99,-1.99,0,*54
1507755945.14,20241,11.56,73908.3,-1.01,-2.03,-2.03,0,*55
1507755946.42,20242,11.56,73904.8,-1.01,-1.99,-1.99,0,*56
1507755947.7,20243,11.56,73900.5,-1.01,-2.03,-1.99,0,*57
1507755948.98,20244,11.56,73900.5,-1.01,-1.99,-1.99,0,*50
1507755950.26,20245,11.56,73904.0,-1.01,-2.03,-1.91,0,*59
1507755951.53,20246,11.56,73904.5,-1.01,-2.03,-1.91,0,*5A
1507755952.78,20247,11.56,73908.0,-0.99,-2.03,-1.91,0,*6B
1507755954.06,20248,11.56,73906.5,-1.01,-2.03,-1.99,0,*5C
1507755955.34,20249,11.56,73910.5,-1.01,-2.03,-1.99,0,*5D
1507755956.62,20250,11.56,73910.3,-1.01,-2.11,-1.99,0,*56
1507755957.9,20251,11.56,73906.5,-1.01,-2.03,-1.99,0,*54
1507755959.18,20252,11.56,73904.5,-1.01,-2.03,-1.99,0,*57
1507755960.46,20253,11.56,73898.3,-1.01,-1.99,-2.03,0,*56
1507755961.73,20254,11.56,73896.3,-1.01,-1.91,-1.99,0,*59
1507755963.01,20255,11.56,73898.8,-1.01,-1.99,-1.99,0,*50
1507755964.29,20256,11.56,73900.0,-1.01,-2.03,-2.03,0,*53
1507755965.57,20257,11.56,73892.3,-1.01,-1.99,-1.99,0,*52
1507755966.86,20258,11.56,73894.3,-1.01,-2.11,-1.99,0,*5E
1507755968.13,20259,11.56,73898.5,-1.01,-2.03,-2.03,0,*5C
1507755969.41,20260,11.56,73904.8,-1.01,-2.03,-2.03,0,*56
1507755970.66,20261,11.56,73908.0,-1.03,-2.03,-2.07,0,*51
1507755971.94,20262,11.56,73904.5,-1.01,-2.11,-2.03,0,*57
1507755973.22,20263,11.56,73910.3,-1.01,-2.03,-2.03,0,*55
1507755974.49,20264,11.56,73914.3,-1.01,-2.11,-2.03,0,*51
1507755975.77,20265,11.56,73916.0,-1.01,-2.03,-2.07,0,*57
1507755977.05,20266,11.56,73918.5,-1.01,-2.03,-1.99,0,*50
1507755978.33,20267,11.56,73914.0,-1.01,-2.03,-1.99,0,*51
1507755979.61,20268,11.56,73914.3,-1.01,-2.03,-2.03,0,*5E
1507755980.88,20269,11.56,73916.3,-1.01,-2.03,-2.03,0,*5F
1507755982.16,20270,11.56,73908.0,-1.01,-2.03,-2.03,0,*57
1507755983.41,20271,11.56,73914.0,-1.03,-2.07,-2.07,0,*54
1507755984.69,20272,11.56,73912.3,-1.01,-2.03,-2.03,0,*55
1507755985.88,20273,11.56,73904.0,-1.03,-2.15,-2.15,0,*56
1507755987.11,20274,11.56,73898.8,-1.03,-2.07,-2.15,0,*52
1507755988.39,20275,11.56,73880.3,-1.01,-2.11,-1.99,0,*51
1507755989.64,20276,11.56,73874.5,-1.03,-2.07,-2.03,0,*57
1507755990.92,20277,11.56,73892.8,-1.01,-2.03,-2.03,0,*50
1507755992.12,20278,11.56,73902.3,-1.03,-2.15,-2.15,0,*5D
1507755993.39,20279,11.56,73902.0,-1.01,-2.11,-2.03,0,*5D
1507755994.67,20280,11.56,73902.3,-1.01,-2.03,-2.11,0,*5B
1507755995.89,20281,11.56,73900.3,-1.03,-2.15,-2.07,0,*58
1507755997.09,20282,11.56,73904.5,-1.03,-2.15,-2.15,0,*58
1507755998.36,20283,11.56,73902.8,-1.01,-2.03,-2.03,0,*5B
1507755999.64,20284,11.56,73902.0,-1.01,-2.03,-1.99,0,*5C
1507756000.92,20285,11.56,73902.5,-1.01,-2.03,-2.03,0,*5D
1507756002.17,20286,11.56,73900.8,-1.03,-2.07,-2.07,0,*5C
1507756003.42,20287,11.56,73904.0,-1.03,-2.07,-2.03,0,*59
1507756004.65,20288,11.56,73906.8,-1.03,-2.15,-2.07,0,*51
1507756005.9,20289,11.56,73908.8,-1.03,-2.07,-2.07,0,*53
1507756007.1,20290,11.56,73906.8,-1.03,-2.15,-2.15,0,*5B
1507756008.32,20291,11.56,73908.3,-1.03,-2.07,-2.15,0,*59
1507756009.55,20292,11.56,73904.8,-1.03,-2.15,-2.07,0,*5A
1507756010.82,20293,11.56,73900.3,-1.01,-2.03,-2.07,0,*5E
1507756012.05,20294,11.56,73896.5,-1.03,-2.15,-2.07,0,*5C
1507756013.27,20295,11.56,73890.0,-1.03,-2.15,-2.07,0,*5D
1507756014.5,20296,11.56,73884.3,-1.03,-2.11,-2.15,0,*59
1507756015.69,20297,11.56,73880.0,-1.03,-2.15,-2.15,0,*5C
1507756016.92,20298,11.56,73884.5,-1.03,-2.15,-2.07,0,*50
1507756018.11,20299,11.56,73890.5,-1.03,-2.19,-2.19,0,*52
1507756019.34,20300,11.56,73900.5,-1.03,-2.15,-2.07,0,*50
1507756020.56,20301,11.56,73892.5,-1.03,-2.15,-2.07,0,*51
1507756021.79,20302,11.56,73894.3,-1.03,-2.15,-2.07,0,*52
1507756023.06,20303,11.56,73904.0,-1.01,-2.03,-2.03,0,*52
1507756024.29,20304,11.56,73910.3,-1.03,-2.07,-2.15,0,*54
1507756025.54,20305,11.56,73902.5,-1.03,-2.07,-2.07,0,*56
1507756026.76,20306,11.56,73902.3,-1.03,-2.15,-2.07,0,*56
1507756027.99,20307,11.56,73898.5,-1.03,-2.15,-2.07,0,*57
1507756029.21,20308,11.56,73902.5,-1.03,-2.15,-2.07,0,*58
1507756030.41,20309,11.56,73902.3,-1.03,-2.19,-2.15,0,*56
1507756031.68,20310,11.56,73902.3,-1.05,-2.07,-2.07,0,*54
1507756032.93,20311,11.56,73900.3,-1.05,-2.07,-2.15,0,*56
1507756034.18,20312,11.56,73900.3,-1.05,-2.15,-2.07,0,*55
1507756035.46,20313,11.56,73902.5,-1.05,-2.07,-2.07,0,*57
1507756036.68,20314,11.56,73900.8,-1.05,-2.15,-2.15,0,*50
1507756037.92,20315,11.56,73904.3,-1.05,-2.15,-2.07,0,*52
1507756039.2,20316,11.56,73908.8,-1.05,-2.07,-2.03,0,*56
1507756040.47,20317,11.56,73904.8,-1.05,-2.07,-2.03,0,*57
1507756041.72,20318,11.56,73906.0,-1.05,-2.03,-2.15,0,*5B
1507756043.0,20319,11.56,73910.8,-1.05,-2.07,-2.07,0,*5D
1507756044.25,20320,11.56,73908.0,-1.03,-2.07,-2.03,0,*55
1507756045.46,20321,11.56,73910.5,-1.03,-2.15,-1.95,0,*5B
1507756046.74,20322,11.56,73904.0,-1.05,-2.07,-2.03,0,*51
1507756048.0,20323,11.56,73898.0,-1.05,-2.07,-1.95,0,*5C
1507756049.28,20324,11.56,73898.8,-1.05,-2.07,-2.03,0,*57
1507756050.55,20325,11.56,73898.3,-1.05,-2.03,-2.03,0,*52
1507756051.83,20326,11.56,73886.3,-1.05,-2.07,-2.07,0,*51
1507756053.1,20327,11.56,73884.0,-1.05,-2.07,-2.03,0,*54
1507756054.35,20328,11.56,73894.5,-1.05,-2.15,-2.07,0,*5C
1507756055.6,20329,11.56,73896.0,-1.03,-2.07,-2.07,0,*58
1507756056.83,20330,11.56,73896.3,-1.03,-2.15,-2.07,0,*53
1507756058.08,20331,11.56,73902.5,-1.03,-2.07,-2.07,0,*51
1507756059.3,20332,11.56,73900.3,-1.03,-2.15,-2.03,0,*55
1507756060.58,20333,11.56,73900.3,-1.05,-2.07,-2.07,0,*55
1507756061.85,20334,11.56,73892.8,-1.05,-2.07,-2.03,0,*56
1507756063.1,20335,11.56,73892.8,-1.05,-2.15,-2.03,0,*54
1507756064.37,20336,11.56,73894.8,-1.05,-2.07,-2.03,0,*54
1507756065.64,20337,11.56,73886.5,-1.05,-2.03,-2.03,0,*51
1507756066.89,20338,11.56,73886.5,-1.05,-2.15,-2.07,0,*5D
1507756068.17,20339,11.56,73888.0,-1.05,-2.07,-2.07,0,*5F
1507756069.39,20340,11.56,73890.8,-1.05,-2.15,-2.15,0,*51
1507756070.66,20341,11.56,73888.8,-1.05,-2.07,-2.07,0,*50
1507756071.91,20342,11.56,73892.3,-1.05,-2.15,-2.07,0,*50
1507756073.19,20343,11.56,73898.3,-1.05,-2.07,-2.07,0,*52
1507756074.47,20344,11.56,73900.8,-1.05,-2.07,-2.07,0,*55
1507756075.74,20345,11.56,73910.8,-1.05,-2.07,-2.07,0,*54
1507756077.02,20346,11.56,73910.3,-1.05,-2.07,-2.07,0,*57
1507756078.3,20347,11.56,73914.0,-1.05,-2.07,-2.07,0,*56
1507756079.57,20348,11.56,73906.0,-1.05,-2.07,-2.07,0,*59
1507756080.82,20349,11.56,73906.5,-1.05,-2.15,-2.07,0,*5B
1507756082.07,20350,11.56,73908.3,-1.05,-2.15,-2.07,0,*53
1507756083.29,20351,11.56,73916.3,-1.07,-2.19,-2.11,0,*5B
1507756084.52,20352,11.56,73912.0,-1.07,-2.19,-2.11,0,*58
1507756085.79,20353,11.56,73912.3,-1.05,-2.07,-2.03,0,*57
1507756087.06,20354,11.56,73912.5,-1.05,-2.07,-1.95,0,*5C
1507756088.28,20355,11.56,73922.0,-1.07,-2.19,-2.07,0,*58
1507756089.54,20356,11.56,73920.3,-1.07,-2.07,-2.07,0,*54
1507756090.81,20357,11.56,73908.8,-1.05,-2.03,-2.03,0,*57
1507756092.07,20358,11.56,73904.8,-1.07,-2.07,-2.07,0,*5A
1507756093.34,20359,11.56,73902.0,-1.05,-2.03,-2.03,0,*59
1507756094.62,20360,11.56,73900.8,-1.05,-2.03,-2.03,0,*53
1507756095.89,20361,11.56,73906.3,-1.05,-2.03,-2.03,0,*52
1507756097.17,20362,11.56,73906.8,-1.05,-2.03,-2.03,0,*51
1507756098.44,20363,11.56,73904.5,-1.05,-2.03,-2.03,0,*50
1507756099.72,20364,11.56,73904.3,-1.05,-2.03,-2.07,0,*53
1507756100.98,20365,11.56,73900.0,-1.05,-2.03,-1.95,0,*5A
1507756102.26,20366,11.56,73900.3,-1.05,-2.03,-2.03,0,*55
1507756103.52,20367,11.56,73898.5,-1.05,-2.03,-1.95,0,*58
1507756104.78,20368,11.56,73896.5,-1.07,-2.11,-2.07,0,*5E
1507756106.06,20369,11.56,73906.5,-1.05,-2.07,-2.03,0,*5E
1507756107.25,20370,11.56,73900.5,-1.07,-2.19,-2.19,0,*50
1507756108.53,20371,11.56,73898.0,-1.05,-2.07,-2.03,0,*57
1507756109.79,20372,11.56,73896.5,-1.07,-2.07,-1.99,0,*56
1507756111.06,20373,11.56,73900.0,-1.05,-2.07,-2.03,0,*55
1507756112.32,20374,11.56,73896.0,-1.07,-2.11,-2.07,0,*53
1507756113.55,20375,11.56,73898.3,-1.07,-2.11,-2.19,0,*5D
1507756114.83,20376,11.56,73894.3,-1.05,-2.07,-2.07,0,*54
1507756116.1,20377,11.56,73900.8,-1.05,-2.07,-2.07,0,*55
1507756117.32,20378,11.56,73902.0,-1.07,-2.19,-2.11,0,*50